Location: ????????
(41.2031°N, 22.5756°E)
Time: 15:12:59
(UTC+00:00)

H-2A R/B - Pass Details

Date: 01 December 2020
Orbit: 578 x 654 km, 98.5° (Epoch: 20 January)

Event Time Altitude Azimuth Distance (km) Brightness Sun altitude
Rises 16:16:23 0° 4° (N) 2,849 5.2 -13.8°
Reaches altitude 10° 16:18:40 10° 356° (N) 1,954 4.5 -14.2°
Maximum altitude 16:22:32 36° 290° (WNW) 981 3.6 -14.9°
Drops below altitude 10° 16:26:28 10° 224° (SW) 1,983 5.6 -15.6°
Sets 16:28:47 0° 216° (SW) 2,898 6.3 -16.0°
